DateTimeUTC,F1_A11,F1_S11,BsB_S11,BsG_S11,BsR_S11,BbsB_S11,BbsG_S11,BbsR_S11,BaB_A11,BaG_A11,BaR_A11,Tu_S11,T_S11,Uu_S11,U_S11,P_S11,T1_A11
2021-06-30T21:00:00Z,00000200,20000000,,,,,,,-000.36,-000.79,0000.01,19.0,25.6,06.4,04.3,0666.3,31.1
2021-06-30T21:01:00Z,00000200,20000000,,,,,,,0000.17,0000.27,-000.15,18.9,25.6,06.4,04.3,0666.3,31.1
2021-06-30T21:02:00Z,00000200,20000000,,,,,,,-000.33,0000.04,0000.23,18.9,25.6,06.5,04.3,0666.3,31.1
2021-06-30T21:03:00Z,00000200,60000000,,,,,,,0000.57,0000.04,0000.01,18.9,25.6,06.5,04.3,0666.3,31.1
2021-06-30T21:04:00Z,00000200,40000000,0000.04,0000.24,0000.25,-000.04,-000.13,0000.08,-000.09,0000.22,0000.28,18.9,25.4,06.5,04.4,0667.3,31.1
2021-06-30T21:05:00Z,00000200,00000000,0000.53,0000.12,0000.27,-000.27,0000.25,0000.08,-000.19,-000.01,0000.03,19.0,25.3,06.5,04.4,0667.4,31.1
2021-06-30T21:06:00Z,00000200,00000000,0000.78,0000.19,0000.01,-000.29,-000.18,0000.05,0000.31,0000.07,-000.06,18.9,25.3,06.6,04.5,0667.4,31.1
2021-06-30T21:07:00Z,00000200,00000000,0000.17,0000.23,-000.02,-000.25,0000.01,-000.13,-000.03,-000.18,0000.14,18.9,25.3,06.6,04.5,0667.4,31.1
2021-06-30T21:08:00Z,00000200,00000000,-000.61,-000.00,0000.15,0000.16,0000.16,-000.27,0000.27,0000.03,-000.13,18.9,25.3,06.7,04.5,0667.5,31.1
2021-06-30T21:09:00Z,00000200,00000000,0000.16,0000.17,0000.08,-000.28,-000.01,0000.14,-000.17,0000.13,0000.26,19.0,25.3,06.6,04.5,0667.4,31.1
2021-06-30T21:10:00Z,00000200,00000000,0000.33,0000.13,0000.17,-000.36,0000.03,0000.07,0000.14,0000.21,-000.47,19.0,25.3,06.6,04.5,0667.4,31.1
2021-06-30T21:11:00Z,00000200,00000000,0000.19,0000.19,0000.29,-000.10,-000.01,0000.23,0000.01,-000.26,0000.27,19.1,25.4,06.6,04.5,0667.4,31.2
2021-06-30T21:12:00Z,00000200,00000000,0000.19,0000.33,-000.01,-000.41,0000.23,0000.21,0000.02,0000.26,0000.14,19.2,25.4,06.5,04.5,0667.4,31.2
2021-06-30T21:13:00Z,00000200,00000000,0000.54,0000.19,0000.15,-000.20,0000.04,-000.08,-000.23,0000.19,0000.03,19.3,25.5,06.5,04.5,0667.4,31.2
2021-06-30T21:14:00Z,00000200,00000000,0000.37,0000.02,0000.18,-000.07,-000.05,-000.11,0000.18,0000.12,0000.10,19.4,25.5,06.6,04.5,0667.5,31.2
2021-06-30T21:15:00Z,00000200,00000000,0000.34,0000.02,0000.16,-000.02,0000.01,-000.03,0000.33,0000.24,0000.19,19.4,25.5,06.5,04.4,0667.6,31.2
2021-06-30T21:16:00Z,00000200,00000000,-000.47,0000.37,0000.26,-000.55,-000.01,0000.15,-000.27,-000.13,-000.25,19.4,25.5,06.6,04.5,0667.6,31.2
2021-06-30T21:17:00Z,00000200,00000000,0001.05,0000.17,0000.30,0000.21,0000.26,0000.15,0000.55,-000.30,0000.38,19.3,25.5,06.5,04.5,0667.5,31.2
2021-06-30T21:18:00Z,00000200,00000000,0000.53,0000.19,0000.08,-000.40,0000.12,0000.14,-000.07,0000.55,-000.16,19.3,25.5,06.5,04.5,0667.6,31.1
2021-06-30T21:19:00Z,00000200,00000000,0000.39,0000.09,-000.11,-000.33,0000.14,-000.29,-000.25,-000.22,-000.05,19.3,25.5,06.6,04.5,0667.5,31.2
2021-06-30T21:20:00Z,00000200,00000000,0000.04,0000.05,0000.11,-000.39,0000.12,-000.06,0000.20,-000.28,-000.07,19.3,25.4,06.5,04.5,0667.6,31.1
2021-06-30T21:21:00Z,00000200,00000000,0001.28,0000.15,0000.36,-000.31,-000.12,0000.36,-000.15,0000.37,0000.28,19.2,25.4,06.6,04.5,0667.6,31.1
2021-06-30T21:22:00Z,00000200,00000000,0000.52,0000.43,0000.16,0000.18,-000.20,-000.02,0000.07,-000.20,0000.15,19.2,25.4,06.6,04.5,0667.6,31.1
2021-06-30T21:23:00Z,00000200,00000000,-000.15,0000.02,-000.03,-000.06,0000.16,-000.06,0000.30,0000.17,-000.20,19.2,25.4,06.6,04.6,0667.6,31.1
2021-06-30T21:24:00Z,00000200,00000000,-000.13,0000.01,0000.25,-000.04,-000.02,0000.19,0000.19,-000.03,-000.14,19.2,25.4,06.6,04.5,0667.6,31.1
2021-06-30T21:25:00Z,00000200,00000000,-000.37,0000.21,-000.06,-000.26,-000.10,-000.02,-000.13,0000.12,0000.13,19.3,25.4,06.6,04.5,0667.6,31.2
2021-06-30T21:26:00Z,00000200,00000000,-000.09,0000.26,0000.25,0000.07,0000.28,0000.12,0000.35,0000.12,0000.09,19.3,25.4,06.6,04.5,0667.6,31.2
2021-06-30T21:27:00Z,00000200,00000000,0000.33,0000.60,0000.04,-000.16,0000.08,-000.11,-000.23,0000.08,-000.03,19.3,25.4,06.6,04.5,0667.6,31.2
2021-06-30T21:28:00Z,00000200,00000000,0000.24,0000.25,-000.12,0000.03,0000.37,-000.33,-000.06,-000.05,0000.07,19.2,25.4,06.6,04.5,0667.7,31.2
2021-06-30T21:29:00Z,00000200,00000000,0000.66,0000.13,0000.37,-000.08,0000.36,0000.05,-000.13,-000.19,0000.04,19.2,25.4,06.7,04.6,0667.8,31.1
2021-06-30T21:30:00Z,00000200,00000000,-000.05,0000.08,0000.16,0000.10,-000.04,0000.06,0000.37,0000.26,-000.12,19.2,25.4,06.6,04.6,0667.7,31.1
2021-06-30T21:31:00Z,00000200,00000000,0000.13,0000.31,0000.31,-000.51,-000.21,-000.10,-000.48,-000.29,-000.12,19.2,25.4,06.7,04.6,0667.6,31.1
2021-06-30T21:32:00Z,00000200,00000000,-000.28,0000.06,0000.28,-000.03,0000.03,-000.09,0000.41,-000.16,0000.32,19.1,25.4,06.5,04.5,0667.6,31.1
2021-06-30T21:33:00Z,00000200,00000000,0000.44,0000.47,0000.07,-000.37,0000.21,-000.09,-000.17,0000.26,0000.01,19.1,25.4,06.5,04.4,0667.6,31.1
2021-06-30T21:34:00Z,00000200,00000000,0001.28,-000.05,0000.31,0000.18,-000.00,0000.13,0000.11,0000.12,-000.18,19.1,25.3,06.4,04.4,0667.6,31.1
2021-06-30T21:35:00Z,00000200,00000000,-000.17,0000.30,0000.18,0000.19,0000.06,0000.09,-000.28,-000.13,0000.08,19.1,25.3,06.6,04.5,0667.7,31.1
2021-06-30T21:36:00Z,00000200,00000000,0000.45,0000.32,0000.25,-000.21,0000.06,0000.17,0000.13,0000.24,0000.21,19.1,25.3,06.6,04.5,0667.7,31.1
2021-06-30T21:37:00Z,00000200,00000000,-000.24,0000.12,0000.02,0000.00,0000.29,-000.04,-000.14,-000.05,-000.24,19.0,25.3,06.5,04.5,0667.7,31.1
2021-06-30T21:38:00Z,00000200,00000000,0000.39,0000.14,0000.26,0000.03,-000.15,0000.19,0000.59,-000.07,-000.03,19.0,25.3,06.6,04.5,0667.7,31.1
2021-06-30T21:39:00Z,00000200,00000000,0000.37,0000.14,-000.01,0000.17,0000.27,0000.19,0000.02,0000.09,0000.35,19.0,25.3,06.7,04.6,0667.8,31.1
2021-06-30T21:40:00Z,00000200,00000000,0000.52,-000.19,0000.27,0000.38,0000.11,0000.06,-000.08,-000.00,0000.11,19.1,25.3,06.5,04.5,0667.7,31.2
2021-06-30T21:41:00Z,00000200,00000000,-000.52,0000.09,0000.41,0000.00,-000.07,0000.13,-000.18,0000.19,0000.07,19.2,25.4,06.5,04.5,0667.8,31.2
2021-06-30T21:42:00Z,00000200,00000000,0000.97,0000.29,0000.13,0000.41,0000.14,-000.00,0000.16,0000.14,0000.20,19.3,25.4,06.4,04.4,0667.8,31.2
2021-06-30T21:43:00Z,00000200,00000000,0000.18,0000.33,-000.02,-000.14,-000.09,-000.13,-000.04,-000.16,-000.46,19.4,25.5,06.4,04.4,0667.8,31.2
2021-06-30T21:44:00Z,00000200,00000000,0000.56,0000.27,-000.04,0000.15,0000.21,-000.19,-000.11,0000.03,0000.08,19.4,25.5,06.3,04.4,0667.8,31.2
2021-06-30T21:45:00Z,00000200,00000000,0000.63,0000.32,0000.30,0000.15,-000.07,0000.14,0000.06,0000.03,0000.01,19.4,25.5,06.3,04.4,0667.9,31.2
2021-06-30T21:46:00Z,00000200,00000000,-000.06,0000.24,0000.13,0000.23,-000.08,0000.15,0000.01,-000.24,-000.10,19.4,25.5,06.3,04.4,0667.8,31.2
2021-06-30T21:47:00Z,00000200,00000000,0000.72,0000.50,0000.16,0000.24,0000.17,-000.21,0000.18,0000.41,0000.04,19.4,25.5,06.2,04.3,0667.8,31.2
2021-06-30T21:48:00Z,00000200,00000000,0000.02,0000.27,0000.29,0000.13,0000.13,0000.12,-000.20,-000.09,0000.32,19.3,25.5,06.4,04.4,0667.9,31.2
2021-06-30T21:49:00Z,00000200,00000000,-000.52,0000.07,-000.13,0000.25,0000.15,-000.02,0000.43,0000.05,-000.13,19.3,25.5,06.4,04.4,0667.9,31.1
2021-06-30T21:50:00Z,00000200,00000000,0000.25,0000.00,0000.08,-000.26,0000.43,-000.03,0000.01,-000.10,-000.14,19.3,25.4,06.4,04.4,0668.0,31.1
2021-06-30T21:51:00Z,00000200,00000000,0000.45,0000.19,0000.43,0000.04,0000.29,-000.17,-000.05,0000.20,0000.38,19.3,25.4,06.4,04.4,0667.9,31.1
2021-06-30T21:52:00Z,00000200,00000000,0000.58,0000.09,0000.17,-000.39,0000.16,0000.07,-000.09,-000.18,-000.02,19.2,25.4,06.4,04.4,0667.9,31.1
2021-06-30T21:53:00Z,00000200,00000000,0000.53,0000.13,0000.18,0000.44,-000.01,-000.04,0000.09,0000.07,-000.24,19.2,25.4,06.4,04.4,0667.8,31.1
2021-06-30T21:54:00Z,00000200,00000000,0000.44,0000.17,0000.18,-000.16,-000.02,0000.20,0000.09,-000.07,0000.06,19.2,25.4,06.4,04.4,0667.8,31.1
2021-06-30T21:55:00Z,00000200,00000000,0000.41,0000.32,0000.08,-000.71,0000.42,-000.27,-000.14,0000.36,-000.19,19.3,25.4,06.3,04.3,0667.9,31.2
2021-06-30T21:56:00Z,00000200,00000000,-000.45,0000.08,0000.10,-000.09,0000.30,-000.11,0000.05,-000.26,0000.34,19.3,25.5,06.3,04.3,0667.8,31.2
2021-06-30T21:57:00Z,00000200,40000000,,,,,,,0000.09,0000.15,-000.17,19.4,25.6,06.3,04.3,0667.8,31.2
2021-06-30T21:58:00Z,00000200,60000000,,,,,,,-000.15,-000.17,-000.05,19.2,25.7,06.4,04.3,0666.9,31.2
2021-06-30T21:59:00Z,00000200,20000000,,,,,,,-000.35,-000.07,-000.11,19.2,25.8,06.4,04.3,0666.9,31.2
